Regional Weather Roundup
Issued by NWS

Home | Current Version | Previous Version | Text Only | Print | Product List | Glossary On
Versions: 1 2 3 4 5 6 7 8 9 10 11 12 13 14 15 16 17 18 19 20 21 22 23 24 25 26 27 28 29 30 31 32 33 34 35 36 37 38 39 40 41 42 43 44 45 46 47 48 49 50
000
ASUS43 KMPX 280210
RWRMN
WEATHER ROUNDUP FOR MINNESOTA
NATIONAL WEATHER SERVICE TWIN CITIES/CHANHASSEN MN
800 PM CST MON FEB 27 2017


NOTE: "FAIR" INDICATES FEW OR NO CLOUDS BELOW 12,000 FEET WITH NO
SIGNIFICANT WEATHER AND/OR OBSTRUCTIONS TO VISIBILITY. N/A MEANS
CURRENT SKY AND/OR WEATHER CONDITIONS ARE NOT AVAILABLE.

MNZ060>063-068>070-280300-
   Twin Cities Metro

CITY           SKY/WX    TMP DP  RH WIND       PRES   REMARKS
TWIN CITIES    CLOUDY    37  24  59 SE8       29.88F
ST PAUL        MOCLDY    35  25  66 SE7       29.90S WCI  29
CRYSTAL        PTCLDY    36  23  59 SE9       29.87S
BLAINE         MOCLDY    37  25  60 SE8       29.88S
LAKEVILLE        N/A     30  27  86 CALM      29.88F
EDEN PRAIRIE   CLOUDY    35  25  66 SE9       29.86F WCI  28
SOUTH ST PAUL  CLOUDY    36  25  63 CALM      29.90S
LAKE ELMO      FAIR      36  27  69 SE5       29.90S
$$
MNZ001>005-007-008-013>017-022>024-027-028-280300-
   Northwest Minnesota

CITY           SKY/WX    TMP DP  RH WIND       PRES   REMARKS
BEMIDJI        CLOUDY    28  17  66 N7        29.83S WCI  20
HALLOCK        CLOUDY    16  12  86 N7        29.95S WCI   6
ROSEAU         LGT SNOW  21  18  86 NW5       29.92R WCI  15
WARROAD        LGT SNOW  21  18  86 NW5       29.92R WCI  15
CROOKSTON      CLOUDY    21  19  93 N14       29.90F WCI   8
FOSSTON        CLOUDY    23  16  74 N10       29.86R WCI  12
DETROIT LAKES  MOCLDY    32  27  80 N3        29.80S
MOORHEAD       CLOUDY    28  21  74 N16       29.83F WCI  17
PARK RAPIDS    CLOUDY    32  22  66 E5        29.79S WCI  27
MAHNOMEN       CLOUDY    26  18  73 N16       29.82S WCI  13
$$
MNZ006-009>011-018-025>026-280300-
   North Central Minnesota

CITY           SKY/WX    TMP DP  RH WIND       PRES   REMARKS
BAUDETTE       CLOUDY    22  14  71 N8        29.89R WCI  12
FLAG ISLAND    FLURRIES  19  16  86 N8        29.91R WCI   9
INTL FALLS     CLOUDY    25   9  50 NE5       29.88R WCI  19
WASKISH        CLOUDY    27  14  59 CALM      29.88R
BIG FORK       CLOUDY    28  18  64 CALM      29.85R
LONGVILLE      CLOUDY    28  25  86 CALM      29.81F
GRAND RAPIDS   CLOUDY    30  24  78 CALM      29.84F
CRANE LAKE     CLOUDY    21  12  68 CALM      29.90R
ORR            CLOUDY    27  16  63 CALM      29.84S
COOK           CLOUDY    27  18  69 CALM      29.85F
WALKER         CLOUDY    29  22  75 CALM      29.82S
$$
MNZ012-019>021-037-280300-
   Northeast Minnesota

CITY           SKY/WX    TMP DP  RH WIND       PRES   REMARKS
DULUTH         CLOUDY    26  24  92 E10       29.87R WCI  16
ELY            CLOUDY    27  18  69 CALM      29.87S
HIBBING        CLOUDY    28  22  78 SE5       29.84S WCI  23
EVELETH        CLOUDY    30  19  63 CALM      29.86S
DULUTH HARBOR  CLOUDY    30  28  93 NE13      29.92F WCI  20
TWO HARBORS    MOCLDY    28  25  86 NE8       29.88F WCI  20
SILVER BAY     MOCLDY    27  25  93 CALM      29.90S
GRAND MARAIS     N/A     26  20  77 N3        29.96R
G MARAIS ARPRT CLOUDY    18  14  86 CALM      29.89R
$$
MNZ029>031-032-039>041-046>048-054>057-064-280300-
   West Central Minnesota

CITY           SKY/WX    TMP DP  RH WIND       PRES   REMARKS
FERGUS FALLS   PTCLDY    34  25  69 E3        29.81S
WHEATON        CLOUDY    34  28  80 NW5       29.79R WCI  30
MORRIS         CLOUDY    34  28  80 S9        29.76R WCI  26
ALEXANDRIA     CLOUDY    36  28  73 S10       29.78S
ELBOW LAKE     CLOUDY    33  29  85 NW3       29.77R
WADENA         PTCLDY    30  23  74 E6        29.77F WCI  24
GLENWOOD       CLOUDY    36  28  75 S10       29.79R
APPLETON       PTCLDY    39  27  60 S6        29.78R
BENSON         CLOUDY    39  25  56 S7        29.81R
ORTONVILLE     CLEAR     37  25  60 S5        29.77R
MADISON        CLOUDY    37  30  75 S3        29.78R
WILLMAR        CLOUDY    37  30  75 SE18      29.80F
$$
MNZ033>034-036-042>043-049>051-058-059-280300-
   Central Minnesota

CITY           SKY/WX    TMP DP  RH WIND       PRES   REMARKS
ST CLOUD       CLOUDY    37  24  59 S15       29.82S
SAUK CENTRE    CLOUDY    33  28  82 S6        29.80S WCI  28
PAYNESVILLE    CLOUDY    37  26  66 SE13G21   29.80S
AITKIN         CLOUDY    30  25  80 CALM      29.80F
PINE RIVER     CLOUDY    28  25  86 CALM      29.84F
BRAINERD       PTCLDY    27  23  85 CALM      29.81S
STAPLES        MOCLDY    28  21  74 E3        29.79F
LONG PRAIRIE   CLOUDY    34  28  80 SE9       29.79S WCI  26
LITTLE FALLS   PTCLDY    36  25  64 CALM      29.81S
LITCHFIELD     CLOUDY    37  27  65 SE7       29.84S
BUFFALO        CLOUDY    37  23  56 SE6       29.86F
MAPLE LAKE     CLOUDY    37  27  66 SE6       29.85S
HUTCHINSON     CLEAR     34  29  82 CALM      29.85S
$$
MNZ037-044-045-052-053-280300-
   East Central Minnesota

CITY           SKY/WX    TMP DP  RH WIND       PRES   REMARKS
PRINCETON      CLOUDY    39  21  48 SE7       29.85S
MORA           CLOUDY    36  21  55 S9        29.87S
CAMBRIDGE      CLOUDY    39  25  56 SE7       29.85S
RUSH CITY      CLOUDY    36  21  54 SE8       29.88S
MOOSE LAKE     CLOUDY    30  23  74 NE5       29.84F WCI  25
HINCKLEY       MOCLDY    37  21  52 S9        29.86S
CLOQUET        CLOUDY    27  23  86 E6        29.86F WCI  20
MCGREGOR       CLOUDY    34  25  69 SE6       29.83F WCI  29
$$
MNZ071>073-080-081-089-090-097-098-280300-
   Southwest Minnesota

CITY           SKY/WX    TMP DP  RH WIND       PRES   REMARKS
MONTEVIDEO     CLOUDY    39  27  60 S9G16     29.80R
GRANITE FALLS  MOCLDY    37  30  75 SE14      29.81S
CANBY          PTCLDY    38  29  69 CALM      29.78R
MARSHALL       CLOUDY    38  27  64 S13       29.79F
REDWOOD FALLS  CLOUDY    34  27  75 SE13      29.82S WCI  25
OLIVIA         PTCLDY    34  28  80 SE9       29.81F WCI  26
PIPESTONE      CLOUDY    37  28  70 S7        29.76S
WINDOM         CLOUDY    36  30  80 SE3       29.81R
WORTHINGTON    LGT RAIN  35  30  82 SE8       29.79S WCI  29
JACKSON        CLOUDY    34  32  93 SE7       29.81S WCI  28
TRACY          DRIZZLE   37  31  78 S7        29.80S
SLAYTON        CLOUDY    34  31  88 SE6       29.80S WCI  29
$$
MNZ065>067-074>077-082>085-091>093-280300-
   South Central Minnesota

CITY           SKY/WX    TMP DP  RH WIND       PRES   REMARKS
MANKATO          N/A     35  30  82 E12       29.84F WCI  27
NEW ULM        CLOUDY    36  27  69 E5        29.84R
ST JAMES       CLOUDY    34  30  86 CALM      29.84R
FAIRMONT       CLOUDY    36  31  82 SE7       29.82F
GLENCOE        CLOUDY    36  31  83 SE9       29.84F
FARIBAULT      CLOUDY    36  28  75 NE5       29.87F
OWATONNA       CLOUDY    36  28  75 E8        29.85F
WASECA         PTCLDY    34  30  86 SE9       29.86F WCI  26
ALBERT LEA     CLOUDY    36  30  80 CALM      29.85S
$$
MNZ078>079-086>088-094>096-280300-
   Southeast Minnesota

CITY           SKY/WX    TMP DP  RH WIND       PRES   REMARKS
ROCHESTER      PTCLDY    36  30  79 SE12      29.87F
RED WING       CLOUDY    39  25  56 SE8       29.87F
STANTON        CLOUDY    36  30  78 E5        29.87F
WINONA         CLOUDY    37  32  81 SW3       29.92F
AUSTIN         CLOUDY    36  30  80 SE8       29.85F
PRESTON        CLOUDY    38  29  71 SE6       29.89S
$$
ABBREVIATIONS USED IN REMARKS
   TC - TEMPERATURES IN CELSIUS
  WCI - WIND CHILL INDEX
   HX - HEAT INDEX
  VSB - VISIBILITY
$$



USA.gov is the U.S. government's official web portal to all federal, state and local government web resources and services.